contact:dominique.lefevre@mio.osupytheas.fr, maurice.libes@osupytheas.fr, didier.mallarino@osupytheas.fr
Project:EMSO http://www.emso-fr.org/EMSO-France
Depth: 2436.0 m
Title:EMSO Ligure Ouest : Data MII capteur AQUADOPP
Date,Latitude,Longitude,X_East,Y_North,Z_Up,Amplitude_X,Amplitude_Y,Amplitude_Z,Batterie,SoundSpeed,Heading,Pitch,Roll,Pressure,TIS,Speed,Direction
, degrees North, degrees East, m.s-1, m.s-1,m.s-1, 1, 1, 1, Volt, m.s-1, degree, degree, degree, dbar, degree_C, m.s-1, degree
2021-03-31T00:04:03,42.805,6.029,-0.027,0.001,-0.009,112.0,109.0,105.0,13.4,1505.2,327.7,-0.7,1.8,2470.287,13.28,0.027,272.1
2021-03-31T00:07:03,42.805,6.029,-0.02,0.004,-0.017,109.0,109.0,106.0,13.4,1505.2,327.7,-0.8,1.8,2470.263,13.28,0.02,281.3
2021-03-31T00:10:03,42.805,6.029,-0.012,-0.002,-0.005,109.0,109.0,106.0,13.4,1505.2,327.3,-0.8,1.8,2470.236,13.28,0.012,260.5
2021-03-31T00:13:03,42.805,6.029,-0.03,0.002,-0.001,110.0,108.0,107.0,13.4,1505.2,327.2,-0.8,1.9,2470.256,13.28,0.03,273.8
2021-03-31T00:16:03,42.805,6.029,-0.035,-0.008,-0.021,110.0,109.0,104.0,13.4,1505.2,327.1,-0.8,1.8,2470.258,13.28,0.035,257.1
2021-03-31T00:19:03,42.805,6.029,-0.035,-0.001,0.006,111.0,111.0,105.0,13.3,1505.2,327.2,-0.8,1.8,2470.277,13.28,0.035,268.4
2021-03-31T00:22:03,42.805,6.029,-0.043,-0.008,-0.03,110.0,110.0,105.0,13.4,1505.2,327.1,-0.7,1.8,2470.257,13.29,0.043,259.5
2021-03-31T00:25:03,42.805,6.029,-0.008,0.009,0.0,110.0,111.0,106.0,13.4,1505.2,327.5,-0.8,1.8,2470.255,13.29,0.012,318.4
2021-03-31T00:28:03,42.805,6.029,-0.014,0.005,-0.002,111.0,108.0,107.0,13.4,1505.2,327.1,-0.7,1.9,2470.231,13.29,0.014,289.6
2021-03-31T00:31:03,42.805,6.029,-0.026,-0.005,0.0,109.0,109.0,105.0,13.3,1505.2,327.6,-0.7,1.8,2470.218,13.29,0.026,259.1
2021-03-31T00:34:03,42.805,6.029,-0.023,-0.004,0.035,108.0,108.0,105.0,13.3,1505.2,327.2,-0.8,1.8,2470.205,13.29,0.023,260.1
2021-03-31T00:37:03,42.805,6.029,-0.032,-0.002,0.01,109.0,108.0,106.0,13.3,1505.2,327.4,-0.7,1.8,2470.244,13.29,0.032,266.4
2021-03-31T00:40:03,42.805,6.029,-0.013,-0.006,-0.001,109.0,108.0,106.0,13.3,1505.2,327.6,-0.7,1.8,2470.211,13.29,0.014,245.2
2021-03-31T00:43:03,42.805,6.029,-0.011,0.012,-0.002,109.0,108.0,104.0,13.4,1505.2,327.6,-0.7,1.8,2470.241,13.29,0.016,317.5
2021-03-31T00:46:03,42.805,6.029,-0.004,0.0,-0.011,109.0,108.0,107.0,13.4,1505.2,327.6,-0.8,1.9,2470.233,13.29,0.004,270.0
2021-03-31T00:49:03,42.805,6.029,-0.024,0.002,-0.001,109.0,109.0,104.0,13.4,1505.2,327.2,-0.8,1.8,2470.231,13.29,0.024,274.8
2021-03-31T00:52:03,42.805,6.029,-0.028,-0.013,-0.026,109.0,107.0,106.0,13.3,1505.2,327.2,-0.8,1.8,2470.219,13.29,0.03,245.1
2021-03-31T00:55:03,42.805,6.029,-0.017,0.0,-0.01,109.0,107.0,107.0,13.3,1505.2,327.5,-0.7,1.8,2470.256,13.29,0.017,270.0
2021-03-31T00:58:03,42.805,6.029,-0.026,0.012,0.005,108.0,107.0,105.0,13.4,1505.2,327.8,-0.8,1.9,2470.2,13.29,0.028,294.8
2021-03-31T01:04:03,42.805,6.029,-0.031,0.0,-0.004,108.0,111.0,105.0,13.4,1505.2,327.1,-0.8,1.8,2470.25,13.28,0.03,270.0
2021-03-31T01:07:03,42.805,6.029,-0.021,-0.012,-0.005,107.0,107.0,105.0,13.4,1505.2,327.4,-0.7,1.9,2470.246,13.28,0.024,240.3
2021-03-31T01:10:03,42.805,6.029,-0.031,0.017,-0.039,110.0,108.0,104.0,13.4,1505.2,327.6,-0.8,1.8,2470.238,13.28,0.035,298.7
2021-03-31T01:13:03,42.805,6.029,-0.016,0.0,0.002,108.0,108.0,105.0,13.3,1505.2,327.4,-0.7,1.8,2470.242,13.28,0.016,270.0
2021-03-31T01:16:03,42.805,6.029,-0.033,0.004,0.0,110.0,107.0,105.0,13.3,1505.2,327.5,-0.7,1.8,2470.231,13.28,0.033,276.9
2021-03-31T01:19:03,42.805,6.029,-0.012,-0.007,-0.005,110.0,108.0,105.0,13.4,1505.2,327.0,-0.8,1.8,2470.212,13.29,0.013,239.7
2021-03-31T01:22:03,42.805,6.029,-0.028,0.009,0.015,110.0,108.0,106.0,13.4,1505.2,327.4,-0.8,1.8,2470.194,13.28,0.029,287.8
2021-03-31T01:25:03,42.805,6.029,-0.009,-0.001,-0.024,109.0,108.0,106.0,13.4,1505.2,327.2,-0.8,1.8,2470.193,13.29,0.009,263.7
2021-03-31T01:28:03,42.805,6.029,-0.043,-0.024,-0.03,111.0,107.0,105.0,13.4,1505.2,327.7,-0.7,1.8,2470.191,13.29,0.049,240.8
2021-03-31T01:31:03,42.805,6.029,-0.003,-0.013,0.015,111.0,108.0,104.0,13.3,1505.2,327.6,-0.8,1.8,2470.199,13.29,0.013,193.0
2021-03-31T01:34:03,42.805,6.029,-0.038,0.0,-0.012,109.0,108.0,105.0,13.3,1505.2,327.9,-0.7,1.8,2470.235,13.29,0.038,270.0
2021-03-31T01:37:03,42.805,6.029,-0.035,0.0,-0.006,107.0,108.0,105.0,13.4,1505.2,327.4,-0.8,1.8,2470.2,13.29,0.035,270.0
2021-03-31T01:40:03,42.805,6.029,-0.031,-0.003,0.0,108.0,109.0,105.0,13.4,1505.2,327.5,-0.7,1.8,2470.202,13.29,0.031,264.5
2021-03-31T01:43:03,42.805,6.029,-0.017,-0.012,0.0,109.0,108.0,105.0,13.4,1505.2,327.2,-0.7,1.8,2470.173,13.29,0.02,234.8
2021-03-31T01:46:03,42.805,6.029,-0.031,-0.004,0.002,108.0,109.0,104.0,13.3,1505.2,327.2,-0.7,1.8,2470.196,13.29,0.031,262.7
2021-03-31T01:49:03,42.805,6.029,-0.033,-0.017,-0.006,109.0,110.0,106.0,13.4,1505.2,327.8,-0.8,1.9,2470.208,13.29,0.037,242.7
2021-03-31T01:52:03,42.805,6.029,-0.024,-0.011,0.007,109.0,110.0,105.0,13.4,1505.2,327.4,-0.8,1.8,2470.171,13.29,0.026,245.4
2021-03-31T01:55:03,42.805,6.029,-0.035,-0.008,0.001,110.0,108.0,105.0,13.4,1505.2,327.6,-0.8,1.9,2470.171,13.29,0.035,257.1
2021-03-31T01:58:03,42.805,6.029,-0.03,-0.006,-0.011,109.0,108.0,105.0,13.3,1505.2,327.3,-0.8,1.8,2470.179,13.29,0.03,258.7
2021-03-31T02:04:03,42.805,6.029,-0.031,0.003,0.011,109.0,108.0,106.0,13.4,1505.2,327.3,-0.8,1.8,2470.202,13.28,0.031,275.5
2021-03-31T02:07:03,42.805,6.029,-0.02,0.002,0.009,108.0,106.0,104.0,13.3,1505.2,327.5,-0.8,1.8,2470.179,13.28,0.02,275.7
2021-03-31T02:10:03,42.805,6.029,-0.042,0.003,-0.02,109.0,107.0,104.0,13.4,1505.2,327.5,-0.7,1.8,2470.159,13.28,0.042,274.1
2021-03-31T02:13:03,42.805,6.029,-0.003,-0.005,-0.008,108.0,107.0,103.0,13.4,1505.2,327.5,-0.8,1.8,2470.225,13.28,0.005,211.0
2021-03-31T02:16:03,42.805,6.029,-0.031,-0.003,0.002,108.0,108.0,104.0,13.4,1505.2,327.4,-0.7,1.8,2470.174,13.28,0.031,264.5
2021-03-31T02:19:03,42.805,6.029,-0.025,0.011,-0.008,108.0,108.0,103.0,13.4,1505.2,327.1,-0.8,1.8,2470.156,13.28,0.027,293.7
2021-03-31T02:22:03,42.805,6.029,-0.031,0.0,0.015,109.0,107.0,105.0,13.4,1505.2,327.2,-0.7,1.8,2470.155,13.28,0.03,270.0
2021-03-31T02:25:03,42.805,6.029,-0.021,0.0,-0.001,109.0,110.0,105.0,13.3,1505.2,327.3,-0.8,1.8,2470.15,13.28,0.021,270.0
2021-03-31T02:28:03,42.805,6.029,-0.029,0.014,-0.005,108.0,107.0,106.0,13.3,1505.2,327.1,-0.7,1.9,2470.153,13.28,0.032,295.8
2021-03-31T02:31:03,42.805,6.029,-0.036,-0.023,-0.013,110.0,107.0,105.0,13.4,1505.2,327.5,-0.8,1.8,2470.182,13.28,0.042,237.4
2021-03-31T02:34:03,42.805,6.029,-0.026,0.004,0.034,108.0,108.0,105.0,13.3,1505.2,327.3,-0.8,1.8,2470.185,13.28,0.026,278.7
2021-03-31T02:37:03,42.805,6.029,-0.027,0.008,-0.034,109.0,108.0,106.0,13.4,1505.2,327.3,-0.7,1.9,2470.159,13.29,0.028,286.5
2021-03-31T02:40:03,42.805,6.029,-0.027,-0.002,-0.013,109.0,108.0,105.0,13.4,1505.2,327.6,-0.8,1.9,2470.181,13.29,0.027,265.8
2021-03-31T02:43:03,42.805,6.029,-0.026,0.008,0.003,109.0,107.0,104.0,13.4,1505.2,327.5,-0.8,1.8,2470.18,13.29,0.027,287.1
2021-03-31T02:46:03,42.805,6.029,-0.042,0.007,0.003,108.0,107.0,105.0,13.3,1505.2,327.4,-0.8,1.8,2470.137,13.29,0.042,279.5
2021-03-31T02:49:03,42.805,6.029,-0.022,0.006,0.003,107.0,107.0,105.0,13.4,1505.2,327.5,-0.8,1.8,2470.156,13.29,0.022,285.3
2021-03-31T02:52:03,42.805,6.029,-0.032,-0.011,0.0,108.0,108.0,104.0,13.4,1505.2,328.0,-0.8,1.8,2470.159,13.29,0.033,251.0
2021-03-31T02:55:03,42.805,6.029,-0.038,0.012,0.02,109.0,106.0,103.0,13.4,1505.2,327.9,-0.7,1.8,2470.163,13.28,0.039,287.5
2021-03-31T02:58:03,42.805,6.029,-0.008,-0.01,0.008,106.0,108.0,104.0,13.4,1505.2,327.6,-0.7,1.8,2470.174,13.28,0.012,218.7
2021-03-31T03:04:03,42.805,6.029,-0.026,0.008,-0.032,109.0,107.0,104.0,13.4,1505.2,327.3,-0.8,1.8,2470.185,13.28,0.027,287.1
2021-03-31T03:07:03,42.805,6.029,-0.027,-0.022,-0.001,109.0,108.0,103.0,13.4,1505.2,327.6,-0.8,1.8,2470.174,13.28,0.034,230.8
2021-03-31T03:10:03,42.805,6.029,-0.018,0.01,-0.008,108.0,107.0,103.0,13.4,1505.2,327.2,-0.7,1.8,2470.123,13.28,0.02,299.1
2021-03-31T03:13:03,42.805,6.029,-0.033,-0.001,0.013,106.0,106.0,104.0,13.4,1505.2,327.4,-0.8,1.8,2470.194,13.28,0.033,268.3
2021-03-31T03:16:03,42.805,6.029,-0.025,0.014,0.021,108.0,107.0,104.0,13.4,1505.2,327.3,-0.8,1.8,2470.188,13.28,0.028,299.3
2021-03-31T03:19:03,42.805,6.029,-0.025,0.011,0.008,108.0,107.0,104.0,13.4,1505.2,327.7,-0.8,1.8,2470.125,13.28,0.027,293.7
2021-03-31T03:22:03,42.805,6.029,-0.012,0.008,0.009,107.0,107.0,105.0,13.4,1505.2,327.7,-0.7,1.8,2470.201,13.28,0.014,303.7
2021-03-31T03:25:03,42.805,6.029,-0.014,0.0,-0.003,110.0,108.0,104.0,13.4,1505.2,327.6,-0.7,1.8,2470.159,13.28,0.014,270.0
2021-03-31T03:28:03,42.805,6.029,-0.02,0.005,-0.005,108.0,108.0,104.0,13.3,1505.2,327.7,-0.7,1.8,2470.191,13.28,0.02,284.0
2021-03-31T03:31:03,42.805,6.029,-0.024,0.007,-0.008,109.0,109.0,104.0,13.4,1505.2,327.2,-0.8,1.8,2470.156,13.28,0.025,286.3
2021-03-31T03:34:03,42.805,6.029,-0.02,0.011,-0.022,108.0,109.0,106.0,13.4,1505.2,327.3,-0.7,1.8,2470.19,13.29,0.022,298.8
2021-03-31T03:37:03,42.805,6.029,-0.018,-0.007,-0.017,107.0,107.0,104.0,13.4,1505.2,327.4,-0.7,1.8,2470.188,13.29,0.019,248.8
2021-03-31T03:40:03,42.805,6.029,-0.034,0.0,-0.004,107.0,107.0,106.0,13.4,1505.2,327.7,-0.7,1.8,2470.179,13.29,0.034,270.0
2021-03-31T03:43:03,42.805,6.029,-0.036,0.001,-0.02,108.0,107.0,104.0,13.4,1505.2,327.4,-0.7,1.8,2470.159,13.28,0.036,271.6
2021-03-31T03:46:03,42.805,6.029,-0.039,0.007,0.0,107.0,106.0,104.0,13.4,1505.2,327.6,-0.8,1.8,2470.135,13.28,0.039,280.2
2021-03-31T03:49:03,42.805,6.029,-0.026,0.0,0.001,108.0,107.0,105.0,13.3,1505.2,327.8,-0.8,1.8,2470.159,13.29,0.026,270.0
2021-03-31T03:52:03,42.805,6.029,-0.019,-0.005,0.003,108.0,107.0,105.0,13.4,1505.2,327.4,-0.7,1.9,2470.155,13.29,0.019,255.3
2021-03-31T03:55:03,42.805,6.029,-0.024,0.004,0.003,108.0,108.0,104.0,13.4,1505.2,326.9,-0.8,1.8,2470.15,13.28,0.024,279.5
2021-03-31T03:58:03,42.805,6.029,-0.022,-0.023,0.013,109.0,108.0,105.0,13.4,1505.2,327.7,-0.7,1.8,2470.174,13.29,0.031,223.7
2021-03-31T04:04:03,42.805,6.029,-0.018,0.007,0.028,109.0,108.0,106.0,13.3,1505.2,327.5,-0.8,1.8,2470.251,13.28,0.019,291.2
2021-03-31T04:07:03,42.805,6.029,-0.015,0.001,-0.022,109.0,108.0,104.0,13.4,1505.2,327.2,-0.7,1.8,2470.168,13.28,0.015,273.8
2021-03-31T04:10:03,42.805,6.029,-0.012,-0.012,-0.009,109.0,107.0,107.0,13.4,1505.2,327.4,-0.8,1.8,2470.177,13.28,0.016,225.0
2021-03-31T04:13:03,42.805,6.029,-0.034,-0.003,-0.011,108.0,107.0,104.0,13.3,1505.2,327.1,-0.7,1.8,2470.176,13.28,0.034,265.0
2021-03-31T04:16:03,42.805,6.029,-0.028,0.012,-0.004,108.0,108.0,104.0,13.3,1505.2,327.4,-0.7,1.8,2470.169,13.29,0.03,293.2
2021-03-31T04:19:03,42.805,6.029,-0.009,0.0,0.008,108.0,107.0,105.0,13.4,1505.2,327.5,-0.7,1.8,2470.164,13.29,0.009,270.0
2021-03-31T04:22:03,42.805,6.029,-0.015,-0.003,-0.029,108.0,106.0,106.0,13.4,1505.2,327.5,-0.7,1.9,2470.139,13.29,0.015,258.7
2021-03-31T04:25:03,42.805,6.029,-0.019,-0.007,-0.027,109.0,108.0,107.0,13.4,1505.2,326.9,-0.8,1.8,2470.112,13.29,0.02,249.8
2021-03-31T04:28:03,42.805,6.029,-0.024,-0.002,0.01,110.0,109.0,105.0,13.4,1505.2,327.6,-0.8,1.8,2470.185,13.29,0.024,265.2
2021-03-31T04:31:03,42.805,6.029,-0.02,-0.008,0.0,108.0,108.0,104.0,13.3,1505.2,327.3,-0.7,1.8,2470.132,13.29,0.021,248.2
2021-03-31T04:34:03,42.805,6.029,-0.022,0.0,-0.012,108.0,107.0,105.0,13.4,1505.2,327.6,-0.7,1.8,2470.149,13.29,0.022,270.0
2021-03-31T04:37:03,42.805,6.029,0.002,0.015,0.0,109.0,107.0,106.0,13.4,1505.2,327.5,-0.8,1.8,2470.158,13.29,0.015,7.6
2021-03-31T04:40:03,42.805,6.029,-0.032,-0.012,0.0,108.0,111.0,105.0,13.4,1505.2,327.4,-0.7,1.8,2470.134,13.29,0.034,249.4
2021-03-31T04:43:03,42.805,6.029,-0.023,-0.009,-0.015,109.0,107.0,106.0,13.4,1505.2,327.5,-0.7,1.8,2470.155,13.29,0.024,248.6
2021-03-31T04:46:03,42.805,6.029,-0.019,0.018,-0.018,110.0,108.0,105.0,13.3,1505.2,327.8,-0.8,1.9,2470.086,13.29,0.026,313.5
2021-03-31T04:49:03,42.805,6.029,-0.029,-0.002,0.01,109.0,107.0,105.0,13.4,1505.2,327.5,-0.8,1.8,2470.145,13.29,0.029,266.1
2021-03-31T04:52:03,42.805,6.029,-0.036,-0.009,-0.016,109.0,109.0,105.0,13.3,1505.2,327.2,-0.7,1.8,2470.114,13.29,0.037,256.0
2021-03-31T04:55:03,42.805,6.029,-0.031,0.007,-0.009,110.0,108.0,104.0,13.4,1505.2,327.3,-0.7,1.8,2470.147,13.29,0.031,282.7
2021-03-31T04:58:03,42.805,6.029,-0.008,-0.009,0.001,109.0,107.0,104.0,13.3,1505.2,327.8,-0.8,1.8,2470.133,13.29,0.012,221.6
2021-03-31T05:04:03,42.805,6.029,-0.021,-0.01,0.01,109.0,110.0,105.0,13.4,1505.2,327.0,-0.8,1.8,2470.109,13.28,0.023,244.5
2021-03-31T05:07:03,42.805,6.029,-0.026,0.0,-0.014,108.0,108.0,105.0,13.4,1505.2,327.5,-0.8,1.8,2470.107,13.28,0.026,270.0
2021-03-31T05:10:03,42.805,6.029,-0.022,-0.009,0.009,108.0,107.0,105.0,13.4,1505.2,327.3,-0.7,1.8,2470.113,13.28,0.023,247.8
2021-03-31T05:13:03,42.805,6.029,-0.019,0.006,-0.001,108.0,108.0,104.0,13.4,1505.2,327.2,-0.7,1.8,2470.131,13.29,0.019,287.5
2021-03-31T05:16:03,42.805,6.029,-0.016,-0.015,-0.026,108.0,107.0,104.0,13.4,1505.2,327.4,-0.7,1.9,2470.123,13.29,0.021,226.9
2021-03-31T05:19:03,42.805,6.029,-0.018,-0.045,-0.021,109.0,110.0,106.0,13.3,1505.2,327.7,-0.7,1.9,2470.079,13.29,0.048,201.8
2021-03-31T05:22:03,42.805,6.029,-0.015,0.0,-0.011,109.0,107.0,105.0,13.4,1505.2,327.2,-0.8,1.8,2470.07,13.29,0.015,270.0
2021-03-31T05:25:03,42.805,6.029,-0.016,-0.006,-0.036,108.0,107.0,105.0,13.4,1505.2,327.5,-0.8,1.8,2470.105,13.29,0.017,249.4
2021-03-31T05:28:03,42.805,6.029,-0.014,-0.001,0.011,109.0,107.0,105.0,13.4,1505.2,327.2,-0.7,1.8,2470.077,13.29,0.014,265.9
2021-03-31T05:31:03,42.805,6.029,-0.032,-0.02,-0.005,107.0,108.0,105.0,13.3,1505.2,327.7,-0.7,1.9,2470.083,13.29,0.037,238.0
2021-03-31T05:34:03,42.805,6.029,-0.033,-0.002,0.006,108.0,109.0,105.0,13.3,1505.2,327.1,-0.8,1.8,2470.099,13.29,0.033,266.5
2021-03-31T05:37:03,42.805,6.029,-0.008,-0.003,-0.005,109.0,108.0,106.0,13.3,1505.2,327.4,-0.8,1.8,2470.057,13.29,0.008,249.4
2021-03-31T05:40:03,42.805,6.029,-0.009,0.008,0.004,109.0,109.0,104.0,13.4,1505.2,327.5,-0.8,1.8,2470.12,13.29,0.012,311.6
2021-03-31T05:43:03,42.805,6.029,-0.018,0.001,-0.006,108.0,107.0,105.0,13.3,1505.2,327.5,-0.8,1.8,2470.113,13.29,0.018,273.2
2021-03-31T05:46:03,42.805,6.029,-0.032,0.003,-0.027,110.0,107.0,104.0,13.3,1505.2,327.2,-0.8,1.8,2470.074,13.29,0.032,275.4
2021-03-31T05:49:03,42.805,6.029,-0.012,0.002,-0.009,108.0,109.0,105.0,13.4,1505.2,327.5,-0.7,1.8,2470.07,13.29,0.012,279.5
2021-03-31T05:52:03,42.805,6.029,-0.028,-0.008,-0.026,108.0,108.0,105.0,13.4,1505.2,327.5,-0.7,1.8,2470.048,13.29,0.029,254.1
2021-03-31T05:55:03,42.805,6.029,-0.022,0.006,0.012,108.0,108.0,104.0,13.4,1505.2,327.6,-0.7,1.8,2470.06,13.29,0.022,285.3
2021-03-31T05:58:03,42.805,6.029,-0.025,-0.009,0.021,110.0,108.0,105.0,13.4,1505.2,327.6,-0.7,1.8,2470.071,13.29,0.026,250.2
2021-03-31T06:04:03,42.805,6.029,-0.029,0.0,-0.015,108.0,108.0,104.0,13.3,1505.2,327.7,-0.7,1.8,2470.098,13.28,0.028,270.0
2021-03-31T06:07:03,42.805,6.029,-0.018,0.005,0.019,108.0,109.0,105.0,13.4,1505.2,327.4,-0.8,1.8,2470.079,13.28,0.018,285.5
2021-03-31T06:10:03,42.805,6.029,-0.012,0.004,-0.006,108.0,107.0,106.0,13.4,1505.2,327.5,-0.7,1.8,2470.117,13.28,0.012,288.4
2021-03-31T06:13:03,42.805,6.029,-0.038,-0.005,-0.007,107.0,107.0,105.0,13.3,1505.2,327.1,-0.8,1.8,2470.139,13.28,0.038,262.5
2021-03-31T06:16:03,42.805,6.029,-0.023,0.001,0.018,108.0,107.0,104.0,13.3,1505.2,327.7,-0.7,1.8,2470.073,13.28,0.023,272.5
2021-03-31T06:19:03,42.805,6.029,-0.009,-0.012,0.013,107.0,107.0,105.0,13.3,1505.2,327.2,-0.8,1.8,2470.083,13.28,0.015,216.9
2021-03-31T06:22:03,42.805,6.029,-0.03,0.0,0.02,108.0,107.0,105.0,13.4,1505.2,327.2,-0.7,1.8,2470.06,13.28,0.03,270.0
2021-03-31T06:25:03,42.805,6.029,-0.018,-0.008,-0.029,108.0,106.0,105.0,13.3,1505.2,327.3,-0.8,1.8,2470.093,13.28,0.019,246.0
2021-03-31T06:28:03,42.805,6.029,-0.013,-0.013,0.015,107.0,109.0,104.0,13.4,1505.2,327.7,-0.8,1.8,2470.124,13.28,0.018,225.0
2021-03-31T06:31:03,42.805,6.029,-0.025,0.01,0.0,108.0,106.0,104.0,13.4,1505.2,327.5,-0.8,1.8,2470.114,13.29,0.026,291.8
2021-03-31T06:34:03,42.805,6.029,-0.043,-0.022,0.005,108.0,106.0,104.0,13.3,1505.2,327.6,-0.7,1.8,2470.089,13.29,0.048,242.9
2021-03-31T06:37:03,42.805,6.029,-0.016,-0.017,-0.014,107.0,107.0,104.0,13.4,1505.2,327.4,-0.7,1.8,2470.077,13.29,0.023,223.3
2021-03-31T06:40:03,42.805,6.029,-0.026,-0.013,-0.031,107.0,107.0,105.0,13.4,1505.2,327.2,-0.8,1.8,2470.117,13.29,0.029,243.4
2021-03-31T06:43:03,42.805,6.029,-0.004,-0.008,0.002,108.0,108.0,104.0,13.4,1505.2,326.8,-0.8,1.8,2470.088,13.28,0.008,206.6
2021-03-31T06:46:03,42.805,6.029,-0.036,-0.012,0.009,106.0,109.0,105.0,13.4,1505.2,327.4,-0.8,1.8,2470.076,13.28,0.037,251.6
2021-03-31T06:49:03,42.805,6.029,-0.029,-0.014,0.0,109.0,107.0,104.0,13.4,1505.2,327.1,-0.8,1.8,2470.107,13.29,0.032,244.2
2021-03-31T06:52:03,42.805,6.029,-0.014,-0.027,-0.018,108.0,108.0,104.0,13.3,1505.2,327.5,-0.8,1.8,2470.08,13.29,0.03,207.4
2021-03-31T06:55:03,42.805,6.029,-0.036,-0.015,-0.005,107.0,106.0,104.0,13.3,1505.2,327.5,-0.7,1.8,2470.098,13.29,0.039,247.4
2021-03-31T06:58:03,42.805,6.029,-0.025,-0.007,-0.013,107.0,107.0,105.0,13.3,1505.2,327.5,-0.8,1.8,2470.105,13.29,0.025,254.4
2021-03-31T07:04:03,42.805,6.029,-0.012,-0.009,-0.006,107.0,107.0,103.0,13.4,1505.2,327.5,-0.8,1.9,2470.168,13.28,0.015,233.1
2021-03-31T07:07:03,42.805,6.029,-0.029,-0.014,0.022,107.0,107.0,104.0,13.4,1505.2,327.3,-0.8,1.8,2470.143,13.28,0.032,244.2
2021-03-31T07:10:03,42.805,6.029,-0.002,-0.012,-0.02,107.0,108.0,103.0,13.4,1505.2,327.4,-0.7,1.8,2470.145,13.28,0.012,189.5
2021-03-31T07:13:03,42.805,6.029,-0.024,0.001,0.007,108.0,109.0,105.0,13.3,1505.2,327.2,-0.8,1.8,2470.127,13.28,0.024,272.4
2021-03-31T07:16:03,42.805,6.029,-0.018,-0.005,-0.012,108.0,107.0,105.0,13.4,1505.2,327.7,-0.7,1.8,2470.168,13.28,0.018,254.5
2021-03-31T07:19:03,42.805,6.029,-0.003,0.014,0.008,107.0,108.0,105.0,13.4,1505.2,327.4,-0.8,1.9,2470.157,13.28,0.014,347.9
2021-03-31T07:22:03,42.805,6.029,-0.027,0.008,-0.013,108.0,106.0,105.0,13.4,1505.2,327.2,-0.8,1.8,2470.178,13.28,0.028,286.5
2021-03-31T07:25:03,42.805,6.029,-0.016,-0.022,0.011,108.0,107.0,105.0,13.3,1505.2,327.1,-0.7,1.8,2470.181,13.28,0.027,216.0
2021-03-31T07:28:03,42.805,6.029,-0.033,-0.019,-0.013,110.0,109.0,103.0,13.4,1505.2,327.7,-0.7,1.8,2470.207,13.28,0.038,240.1
2021-03-31T07:31:03,42.805,6.029,-0.025,-0.014,-0.005,109.0,108.0,106.0,13.4,1505.2,327.5,-0.7,1.8,2470.203,13.28,0.028,240.7
2021-03-31T07:34:03,42.805,6.029,-0.022,-0.015,0.0,109.0,107.0,105.0,13.4,1505.2,327.5,-0.8,1.8,2470.215,13.28,0.026,235.7
2021-03-31T07:37:03,42.805,6.029,-0.034,-0.002,-0.016,107.0,106.0,105.0,13.4,1505.2,327.1,-0.7,1.8,2470.185,13.29,0.034,266.6
2021-03-31T07:40:03,42.805,6.029,-0.007,-0.019,-0.012,107.0,106.0,103.0,13.3,1505.2,326.9,-0.8,1.8,2470.255,13.28,0.02,200.2
2021-03-31T07:43:03,42.805,6.029,-0.019,-0.002,0.018,107.0,105.0,104.0,13.4,1505.2,327.1,-0.8,1.8,2470.232,13.28,0.019,264.0
2021-03-31T07:46:03,42.805,6.029,-0.022,-0.005,-0.002,108.0,108.0,104.0,13.4,1505.2,327.5,-0.7,1.8,2470.222,13.28,0.022,257.2
2021-03-31T07:49:03,42.805,6.029,-0.021,-0.001,-0.002,108.0,108.0,103.0,13.4,1505.2,327.3,-0.7,1.8,2470.231,13.28,0.021,267.3
2021-03-31T07:52:03,42.805,6.029,-0.018,-0.004,0.009,108.0,108.0,104.0,13.4,1505.2,327.4,-0.8,1.8,2470.237,13.28,0.018,257.5
2021-03-31T07:55:03,42.805,6.029,-0.015,0.0,-0.009,109.0,109.0,104.0,13.4,1505.2,327.5,-0.8,1.8,2470.249,13.28,0.015,270.0
2021-03-31T07:58:03,42.805,6.029,-0.034,-0.011,0.015,108.0,108.0,105.0,13.4,1505.2,327.4,-0.8,1.8,2470.258,13.28,0.035,252.1
2021-03-31T08:04:03,42.805,6.029,-0.052,-0.008,0.0,109.0,107.0,104.0,13.4,1505.2,327.6,-0.8,1.8,2470.325,13.28,0.052,261.3
2021-03-31T08:07:03,42.805,6.029,-0.019,-0.016,-0.012,108.0,107.0,106.0,13.4,1505.2,327.3,-0.8,1.8,2470.304,13.28,0.024,229.9
2021-03-31T08:10:03,42.805,6.029,-0.006,-0.014,-0.024,109.0,108.0,105.0,13.4,1505.2,326.5,-0.8,1.8,2470.282,13.28,0.015,203.2
2021-03-31T08:13:03,42.805,6.029,-0.02,-0.012,-0.013,108.0,108.0,104.0,13.4,1505.2,327.3,-0.7,1.8,2470.27,13.28,0.023,239.0
2021-03-31T08:16:03,42.805,6.029,-0.025,-0.018,0.016,109.0,106.0,103.0,13.4,1505.2,327.4,-0.8,1.8,2470.3,13.28,0.03,234.2
2021-03-31T08:19:03,42.805,6.029,-0.032,-0.004,-0.002,108.0,107.0,105.0,13.4,1505.2,327.0,-0.8,1.8,2470.272,13.28,0.032,262.9
2021-03-31T08:22:03,42.805,6.029,-0.01,-0.026,0.004,110.0,108.0,104.0,13.4,1505.2,327.1,-0.8,1.8,2470.31,13.28,0.027,201.0
2021-03-31T08:25:03,42.805,6.029,-0.023,-0.006,0.018,108.0,106.0,103.0,13.4,1505.2,327.1,-0.7,1.8,2470.331,13.28,0.023,255.4
2021-03-31T08:28:03,42.805,6.029,-0.006,-0.001,-0.003,109.0,109.0,104.0,13.4,1505.2,327.1,-0.7,1.8,2470.305,13.28,0.006,260.5
2021-03-31T08:31:03,42.805,6.029,-0.021,-0.022,-0.023,108.0,107.0,107.0,13.3,1505.2,327.1,-0.8,1.8,2470.316,13.28,0.03,223.7
2021-03-31T08:34:03,42.805,6.029,-0.029,-0.008,-0.018,107.0,109.0,105.0,13.4,1505.2,327.1,-0.7,1.8,2470.313,13.28,0.03,254.6
2021-03-31T08:37:03,42.805,6.029,-0.003,0.01,-0.044,109.0,109.0,103.0,13.3,1505.2,327.2,-0.7,1.8,2470.344,13.28,0.01,343.3
2021-03-31T08:40:03,42.805,6.029,-0.014,0.002,-0.017,108.0,107.0,105.0,13.4,1505.2,327.0,-0.8,1.8,2470.305,13.28,0.014,278.1
2021-03-31T08:43:03,42.805,6.029,-0.005,-0.012,0.0,106.0,105.0,104.0,13.3,1505.2,327.2,-0.7,1.8,2470.302,13.28,0.013,202.6
2021-03-31T08:46:03,42.805,6.029,-0.03,-0.005,0.014,106.0,106.0,104.0,13.4,1505.2,327.0,-0.8,1.8,2470.318,13.28,0.03,260.5
2021-03-31T08:49:03,42.805,6.029,-0.027,-0.01,-0.008,107.0,105.0,104.0,13.3,1505.2,327.1,-0.8,1.9,2470.295,13.28,0.028,249.7
2021-03-31T08:52:03,42.805,6.029,-0.018,-0.001,-0.01,108.0,107.0,103.0,13.4,1505.2,327.2,-0.8,1.8,2470.279,13.28,0.018,266.8
2021-03-31T08:55:03,42.805,6.029,-0.024,-0.007,0.002,106.0,106.0,105.0,13.4,1505.2,327.1,-0.7,1.8,2470.272,13.28,0.025,253.7
2021-03-31T08:58:03,42.805,6.029,-0.021,-0.004,0.029,107.0,106.0,104.0,13.4,1505.2,327.1,-0.7,1.8,2470.308,13.28,0.021,259.2
2021-03-31T09:04:03,42.805,6.029,-0.025,-0.027,0.002,109.0,108.0,104.0,13.4,1505.2,328.1,-0.7,1.9,2470.343,13.28,0.036,222.8
2021-03-31T09:07:03,42.805,6.029,-0.015,-0.02,-0.005,108.0,108.0,105.0,13.4,1505.2,327.3,-0.8,1.8,2470.314,13.28,0.025,216.9
2021-03-31T09:10:03,42.805,6.029,-0.004,-0.01,0.002,108.0,107.0,105.0,13.4,1505.2,327.4,-0.8,1.8,2470.31,13.28,0.01,201.8
2021-03-31T09:13:03,42.805,6.029,-0.029,-0.009,-0.014,109.0,107.0,105.0,13.4,1505.2,327.2,-0.7,1.8,2470.3,13.28,0.03,252.8
2021-03-31T09:16:03,42.805,6.029,-0.004,-0.015,0.001,107.0,108.0,104.0,13.4,1505.2,327.4,-0.8,1.8,2470.331,13.28,0.015,194.9
2021-03-31T09:19:03,42.805,6.029,-0.006,-0.02,-0.002,108.0,109.0,105.0,13.3,1505.2,327.2,-0.7,1.8,2470.361,13.28,0.02,196.7
2021-03-31T09:22:03,42.805,6.029,-0.031,-0.002,0.037,107.0,108.0,105.0,13.3,1505.2,327.1,-0.7,1.8,2470.294,13.28,0.031,266.3
2021-03-31T09:25:03,42.805,6.029,-0.023,-0.006,0.011,107.0,106.0,105.0,13.4,1505.2,327.3,-0.7,1.8,2470.287,13.28,0.023,255.4
2021-03-31T09:28:03,42.805,6.029,-0.026,0.01,-0.027,107.0,108.0,105.0,13.4,1505.2,327.7,-0.7,1.8,2470.304,13.28,0.027,291.0
2021-03-31T09:31:03,42.805,6.029,-0.021,-0.01,0.007,107.0,107.0,106.0,13.3,1505.2,327.7,-0.7,1.8,2470.319,13.28,0.023,244.5
2021-03-31T09:34:03,42.805,6.029,-0.006,-0.007,-0.012,109.0,108.0,105.0,13.3,1505.2,327.2,-0.8,1.9,2470.303,13.28,0.009,220.6
2021-03-31T09:37:03,42.805,6.029,-0.028,-0.013,-0.019,108.0,107.0,104.0,13.4,1505.2,327.4,-0.8,1.8,2470.305,13.28,0.03,245.1
2021-03-31T09:40:03,42.805,6.029,-0.027,-0.017,0.012,110.0,109.0,105.0,13.4,1505.2,327.0,-0.7,1.8,2470.34,13.28,0.031,237.8
2021-03-31T09:43:03,42.805,6.029,-0.031,0.0,0.008,108.0,107.0,106.0,13.4,1505.2,327.7,-0.8,1.8,2470.292,13.28,0.03,270.0
2021-03-31T09:46:03,42.805,6.029,-0.014,-0.031,-0.004,108.0,108.0,106.0,13.4,1505.2,327.6,-0.8,1.8,2470.285,13.28,0.034,204.3
2021-03-31T09:49:03,42.805,6.029,-0.04,-0.014,-0.005,110.0,109.0,106.0,13.3,1505.2,327.5,-0.7,1.8,2470.29,13.28,0.042,250.7
2021-03-31T09:52:03,42.805,6.029,-0.022,-0.003,-0.01,110.0,109.0,106.0,13.3,1505.2,327.5,-0.8,1.8,2470.268,13.28,0.022,262.2
2021-03-31T09:55:03,42.805,6.029,-0.01,-0.005,-0.003,108.0,108.0,105.0,13.3,1505.2,327.6,-0.8,1.8,2470.314,13.28,0.011,243.4